FENGYUN 1C DEB *, 47041

Orbit data source: Space-Track

FENGYUN 1C DEB *, 47041 is space debris in SSO originally from a launch on Mon, 10 May 1999 UTC launched from the Taiyaun Space Center, China (TSC). Fengyun 1C debris stems from the Chinese weather satellite Fengyun-1C, which was intentionally destroyed by a Chinese anti-satellite missile in 2007. This event dramatically increased the amount of space debris, with thousands of trackable fragments posing hazards to satellites and human spaceflight. The Fengyun 1C debris cloud has become a focal point in discussions about space sustainability and the need for international regulations to prevent the creation of new debris.

Loading next visibility...
Identifier
47041, 1999-025FBT
Orbit
SSO
Country
Flag of CNCN / PRC
Related business
Manufacturer
Unknown
Mission
Spacecraft
Bus & Motor
Unknown
Mass
Unknown
Launch date (UTC)
1999-05-10 (27 years ago)
Launch vehicle
Unknown
Launch site
Taiyaun Space Center, China (TSC)
Object type
Payload
Rocket body
Debris
Shape & HBR
Unknown shape, 0.1 m
Radar Cross Section
Small (<0.1 m²)

Expand to show TLE details & history
Last TLE update: 4 days ago

TLE from 4 days ago
0 FENGYUN 1C DEB *
1 47041U 99025FBT 26169.39395740  .00038412  00000-0  16215-2 0  9990
2 47041  98.2322 216.5727 0009335 257.1710 119.3067 15.23134768740308
Epoch: 2026-06-18T09:27Z
TLE epoch observation values (Epoch: 2026-06-18T09:27:17.919Z)
Latitude
16.37783°
Longitude
165.68663°
Altitude
501.947 km
Speed
7.613 km/s
True Right ascension
14h 16m 35s
True Declination
16° 16' 54"
Sunlit
Object was in full shadow at epoch
Visualization orbit readout
Latitude
Unknown
Longitude
Unknown
Altitude
Unknown
Speed
Unknown
Apparent Right ascension
Unknown
Apparent Declination
Unknown
Sunlit
N/A
Visualization observer readout
Local Sidereal Time
21:38:10
Azimuth
Unknown
Elevation
Unknown
Doppler factor
Unknown
Orbital elements
Apogee altitude
499.806 km
Perigee altitude
486.976 km
Semi-major axis
6,871.528 km
Eccentricity
0.00093
Inclination
98.2322°
RAAN
216.5727°
Arg. of periapsis
257.171°
True anomaly
119.39993°
Mean anomaly
119.3067°
Eccentric anomaly
119.35332°
Mean motion
3.81034 °/min
Orbital period
94.48 mins
BSTAR
0.0016215
Loading maneuver chart data...
Computing Atmospheric mass density...
Loading historical data...
Loading historical data...
Loading historical data...
Loading historical data...
Loading historical data...
Loading historical data...
Loading historical data...

Documentation

Showing up to 5 results
|